When you browse on this site, cookies collect data to enhance your experience and personalize the content and advertising you see.
Visit our Privacy Policy to learn more. By continuing to use the site, you agree to this use of cookies and data.
  • In Hungary
  • List of Countries
  • For 7 days
  • Water Temperature
  • Weather Map
  • News
  • Weather Widgets
  • user-avatar
    Login

    Hourly Weather Strugi

    Today, 23 September, Monday

    Time Temperature Precipitation Wind Pressure Humidity
    00:00 +13°C° 0 mm 1 mps 753 mmHg 73%
    01:00 +13°C° 0 mm 2 mps 753 mmHg 76%
    02:00 +12°C° 0 mm 2 mps 753 mmHg 81%
    03:00 +11°C° 0 mm 3 mps 753 mmHg 85%
    04:00 +10°C° 0 mm 3 mps 753 mmHg 89%
    05:00 +11°C° 0 mm 4 mps 753 mmHg 89%
    06:00 +11°C° 0 mm 4 mps 754 mmHg 89%
    07:00 +10°C° 0 mm 5 mps 754 mmHg 89%
    08:00 +12°C° 0 mm 5 mps 754 mmHg 84%
    09:00 +13°C° 0 mm 5 mps 754 mmHg 78%
    10:00 +14°C° 0 mm 5 mps 754 mmHg 72%
    11:00 +15°C° 0 mm 5 mps 754 mmHg 68%
    12:00 +16°C° 0 mm 5 mps 754 mmHg 63%
    13:00 +17°C° 0 mm 5 mps 754 mmHg 59%
    14:00 +17°C° 0 mm 5 mps 754 mmHg 60%
    15:00 +17°C° 0 mm 5 mps 754 mmHg 61%
    16:00 +16°C° 0 mm 5 mps 754 mmHg 61%
    17:00 +15°C° 0 mm 5 mps 754 mmHg 66%
    18:00 +13°C° 0 mm 4 mps 754 mmHg 70%
    19:00 +12°C° 0 mm 4 mps 754 mmHg 75%
    20:00 +11°C° 0 mm 4 mps 755 mmHg 76%
    21:00 +10°C° 0 mm 3 mps 755 mmHg 77%
    22:00 +10°C° 0 mm 3 mps 755 mmHg 79%
    23:00 +9°C° 0 mm 3 mps 755 mmHg 81%

    Tomorrow, 24 September, Tuesday

    Time Temperature Precipitation Wind Pressure Humidity
    00:00 +9°C° 0 mm 3 mps 755 mmHg 82%
    01:00 +8°C° 0 mm 3 mps 755 mmHg 84%
    02:00 +8°C° 0 mm 3 mps 755 mmHg 86%
    03:00 +7°C° 0 mm 3 mps 754 mmHg 87%
    04:00 +7°C° 0 mm 3 mps 754 mmHg 89%
    05:00 +7°C° 0 mm 3 mps 754 mmHg 86%
    06:00 +8°C° 0 mm 3 mps 754 mmHg 84%
    07:00 +8°C° 0 mm 3 mps 754 mmHg 81%
    08:00 +10°C° 0 mm 3 mps 754 mmHg 75%
    09:00 +13°C° 0 mm 3 mps 754 mmHg 69%
    10:00 +16°C° 0 mm 2 mps 754 mmHg 62%
    11:00 +17°C° 0 mm 3 mps 753 mmHg 58%
    12:00 +18°C° 0 mm 3 mps 753 mmHg 54%
    13:00 +19°C° 0 mm 3 mps 753 mmHg 49%
    14:00 +19°C° 0 mm 2 mps 752 mmHg 50%
    15:00 +19°C° 0 mm 2 mps 752 mmHg 50%
    16:00 +19°C° 0 mm 2 mps 752 mmHg 51%
    17:00 +17°C° 0 mm 3 mps 751 mmHg 56%
    18:00 +16°C° 0 mm 3 mps 751 mmHg 61%
    19:00 +13°C° 0 mm 3 mps 751 mmHg 66%
    20:00 +13°C° 0 mm 3 mps 751 mmHg 67%
    21:00 +12°C° 0 mm 3 mps 751 mmHg 68%
    22:00 +12°C° 0 mm 3 mps 751 mmHg 70%
    23:00 +12°C° 0 mm 3 mps 751 mmHg 72%

    Day after tomorrow, 25 September, Wednesday

    Time Temperature Precipitation Wind Pressure Humidity
    00:00 +11°C° 0 mm 3 mps 751 mmHg 74%
    01:00 +11°C° 0 mm 3 mps 750 mmHg 76%
    02:00 +11°C° 0 mm 3 mps 750 mmHg 77%
    03:00 +11°C° 0 mm 3 mps 750 mmHg 79%
    04:00 +11°C° 0 mm 3 mps 749 mmHg 80%
    05:00 +12°C° 0 mm 3 mps 749 mmHg 79%
    06:00 +12°C° 0 mm 4 mps 749 mmHg 77%
    07:00 +12°C° 0 mm 4 mps 748 mmHg 75%
    08:00 +13°C° 0 mm 4 mps 748 mmHg 72%
    09:00 +15°C° 0 mm 4 mps 748 mmHg 68%
    10:00 +17°C° 0 mm 4 mps 748 mmHg 65%
    11:00 +18°C° 0.1 mm 4 mps 748 mmHg 64%
    12:00 +19°C° 0.1 mm 3 mps 748 mmHg 63%
    13:00 +20°C° 0.1 mm 3 mps 747 mmHg 62%
    14:00 +19°C° 0.3 mm 3 mps 747 mmHg 63%
    15:00 +19°C° 0.3 mm 3 mps 747 mmHg 65%
    16:00 +19°C° 0.3 mm 2 mps 747 mmHg 66%
    17:00 +18°C° 0.4 mm 2 mps 747 mmHg 72%
    18:00 +17°C° 0.4 mm 2 mps 747 mmHg 77%
    19:00 +16°C° 0.4 mm 2 mps 747 mmHg 82%
    20:00 +15°C° 0.3 mm 2 mps 747 mmHg 84%
    21:00 +15°C° 0.3 mm 2 mps 747 mmHg 86%
    22:00 +15°C° 0.3 mm 2 mps 747 mmHg 88%
    23:00 +14°C° 0 mm 2 mps 747 mmHg 88%

    26 September, Thursday

    Time Temperature Precipitation Wind Pressure Humidity
    00:00 +14°C° 0 mm 2 mps 747 mmHg 89%
    01:00 +14°C° 0 mm 2 mps 747 mmHg 90%
    02:00 +13°C° 0 mm 3 mps 747 mmHg 91%
    03:00 +12°C° 0 mm 3 mps 748 mmHg 93%
    04:00 +12°C° 0 mm 3 mps 748 mmHg 94%
    05:00 +12°C° 0.2 mm 3 mps 748 mmHg 93%
    06:00 +13°C° 0.2 mm 3 mps 748 mmHg 93%
    07:00 +13°C° 0.2 mm 4 mps 749 mmHg 92%
    08:00 +14°C° 0.1 mm 4 mps 749 mmHg 88%
    09:00 +15°C° 0.1 mm 4 mps 750 mmHg 84%
    10:00 +15°C° 0.1 mm 4 mps 750 mmHg 79%
    11:00 +17°C° 0.1 mm 4 mps 750 mmHg 75%
    12:00 +18°C° 0.1 mm 4 mps 750 mmHg 70%
    13:00 +19°C° 0.1 mm 4 mps 750 mmHg 66%
    14:00 +19°C° 0.1 mm 3 mps 750 mmHg 65%
    15:00 +19°C° 0.1 mm 3 mps 750 mmHg 65%
    16:00 +19°C° 0.1 mm 3 mps 750 mmHg 64%
    17:00 +18°C° 0 mm 3 mps 751 mmHg 69%
    18:00 +16°C° 0 mm 2 mps 751 mmHg 75%
    19:00 +15°C° 0 mm 2 mps 751 mmHg 80%
    20:00 +14°C° 0 mm 2 mps 752 mmHg 82%
    21:00 +14°C° 0 mm 2 mps 752 mmHg 84%
    22:00 +14°C° 0 mm 2 mps 752 mmHg 86%
    23:00 +13°C° 0 mm 2 mps 753 mmHg 87%

    27 September, Friday

    Time Temperature Precipitation Wind Pressure Humidity
    00:00 +13°C° 0 mm 2 mps 753 mmHg 89%
    01:00 +13°C° 0 mm 2 mps 753 mmHg 90%
    02:00 +12°C° 0 mm 2 mps 753 mmHg 91%
    03:00 +12°C° 0 mm 2 mps 753 mmHg 92%
    04:00 +12°C° 0 mm 2 mps 753 mmHg 93%
    05:00 +13°C° 0 mm 2 mps 753 mmHg 92%
    06:00 +13°C° 0 mm 2 mps 753 mmHg 90%
    07:00 +14°C° 0 mm 2 mps 753 mmHg 89%
    08:00 +15°C° 0 mm 2 mps 753 mmHg 82%
    09:00 +17°C° 0 mm 2 mps 753 mmHg 75%
    10:00 +19°C° 0 mm 3 mps 753 mmHg 67%
    11:00 +20°C° 0 mm 3 mps 753 mmHg 64%
    12:00 +20°C° 0 mm 3 mps 753 mmHg 61%
    13:00 +21°C° 0 mm 3 mps 752 mmHg 58%
    14:00 +21°C° 0 mm 3 mps 752 mmHg 60%
    15:00 +21°C° 0 mm 2 mps 752 mmHg 61%
    16:00 +21°C° 0 mm 2 mps 752 mmHg 63%
    17:00 +20°C° 0 mm 2 mps 752 mmHg 65%
    18:00 +19°C° 0 mm 2 mps 752 mmHg 68%
    19:00 +18°C° 0 mm 3 mps 752 mmHg 71%
    20:00 +17°C° 0 mm 3 mps 752 mmHg 74%
    21:00 +17°C° 0 mm 3 mps 752 mmHg 76%
    22:00 +16°C° 0 mm 3 mps 752 mmHg 79%
    23:00 +16°C° 0 mm 3 mps 752 mmHg 81%

    28 September, Saturday

    Time Temperature Precipitation Wind Pressure Humidity
    00:00 +16°C° 0 mm 3 mps 751 mmHg 83%
    01:00 +16°C° 0 mm 3 mps 751 mmHg 85%
    02:00 +15°C° 0.1 mm 4 mps 751 mmHg 84%
    03:00 +15°C° 0.1 mm 4 mps 751 mmHg 83%
    04:00 +15°C° 0.1 mm 4 mps 751 mmHg 82%
    05:00 +15°C° 0.4 mm 4 mps 751 mmHg 85%
    06:00 +16°C° 0.4 mm 3 mps 751 mmHg 88%
    07:00 +16°C° 0.4 mm 3 mps 750 mmHg 90%
    08:00 +16°C° 0.3 mm 3 mps 750 mmHg 88%
    09:00 +17°C° 0.3 mm 4 mps 751 mmHg 85%
    10:00 +17°C° 0.3 mm 4 mps 751 mmHg 82%
    11:00 +18°C° 0.4 mm 4 mps 750 mmHg 78%
    12:00 +19°C° 0.4 mm 5 mps 750 mmHg 73%
    13:00 +20°C° 0.4 mm 5 mps 750 mmHg 69%
    14:00 +20°C° 0.2 mm 5 mps 750 mmHg 68%
    15:00 +20°C° 0.2 mm 4 mps 750 mmHg 68%
    16:00 +19°C° 0.2 mm 3 mps 749 mmHg 67%
    17:00 +18°C° 0.1 mm 3 mps 749 mmHg 71%
    18:00 +17°C° 0.1 mm 3 mps 750 mmHg 74%
    19:00 +16°C° 0.1 mm 2 mps 750 mmHg 78%
    20:00 +16°C° 0.1 mm 3 mps 750 mmHg 78%
    21:00 +15°C° 0.1 mm 4 mps 750 mmHg 77%
    22:00 +14°C° 0.1 mm 4 mps 750 mmHg 77%
    23:00 +14°C° 0 mm 4 mps 750 mmHg 78%
    Show more